Flag for U.S.A. Weather past 2 weeks in Santa Rosa, California, U.S.A.

Now
57 °F

Clear.


Feels Like: 56 °F
Forecast: 52 / 86 °F
Wind: 7 mph from South

Location: Santa Rosa Sonoma County Airport

Current Time: Aug 1, 2014 at 10:12:49 PM

Latest Report: Aug 1, 2014 at 9:53 PM


Visibility: 10 mi

Pressure: 29.86 "Hg

Humidity: 90%

Dew point: 54 °F

Location of Santa RosaLocation

Historic Weather in Santa Rosa — Graph

°F

Santa Rosa temperature yesterday

Maximum temperature yesterday: 85 °F (at 2:53 PM)
Minimum temperature yesterday: 55 °F (at 2:53 AM)
Average temperature yesterday: 65 °F

Past Weeks' High & Low Weather Summary

 TemperatureHumidityPressure
High97 °F (Jul 25, 1:53 PM)100% (Jul 31, 6:53 AM)30.11 "Hg (Jul 31, 6:53 AM)
Low52 °F (Aug 1, 5:02 AM)13% (Jul 25, 4:53 PM)29.77 "Hg (Jul 25, 6:53 PM)
Average67 °F70%29.94 "Hg
* Reported Jul 17 8:53 PM — Aug 1 8:53 PM, Santa Rosa, Weather by CustomWeather, © 2014

Note: Actual official high and low records may vary slightly from our data, if they occured in-between our weather recording intervals... More about our weather records

Advertising

Santa Rosa weather history for previous 24 hours

 ConditionsComfort  
Time TempWeatherWind HumidityBarometerVisibility
8:53 PM
Aug 1
60 °FSunny.9 mph80%29.84 "Hg10 mi
7:53 PM65 °FSunny.9 mph68%29.83 "Hg10 mi
6:53 PM74 °FScattered clouds.9 mph52%29.82 "Hg10 mi
5:53 PM78 °FSunny.13 mph45%29.82 "Hg10 mi
4:53 PM82 °FSunny.14 mph43%29.82 "Hg10 mi
3:53 PM86 °FPassing clouds.9 mph39%29.83 "Hg10 mi
2:53 PM86 °FSunny.12 mph37%29.84 "Hg10 mi
1:53 PM84 °FSunny.9 mph38%29.85 "Hg10 mi
12:53 PM80 °FSunny.8 mph45%29.86 "Hg10 mi
11:53 AM80 °FScattered clouds.7 mph47%29.87 "Hg10 mi
10:53 AM72 °FScattered clouds.6 mph55%29.88 "Hg10 mi
9:53 AM66 °FScattered clouds.3 mph70%29.88 "Hg10 mi
8:53 AM58 °FFog.No wind90%29.88 "Hg7 mi
7:53 AM53 °FFog.No wind100%29.88 "Hg1 mi
6:53 AM52 °FFog.No wind100%29.88 "Hg1 mi
5:53 AM52 °FFog.No wind97%29.87 "Hg1 mi
5:02 AM52 °FFog.No wind94%29.88 "Hg4 mi
4:53 AM52 °FClear.No wind93%29.86 "Hg10 mi
3:53 AM52 °FClear.No wind97%29.86 "Hg9 mi
2:53 AM54 °FClear.No wind90%29.85 "Hg9 mi
1:53 AM54 °FClear.No wind97%29.86 "Hg8 mi
12:53 AM56 °FClear.No wind93%29.87 "Hg9 mi
11:53 PM
Jul 31
57 °FClear.3 mph90%29.87 "Hg10 mi
10:53 PM57 °FClear.No wind90%29.88 "Hg10 mi
Weather by CustomWeather, © 2014

See weather overviewHow to use our weather pages